Regional Weather Roundup
Issued by NWS

Home | Current Version | Previous Version | Graphics & Text | Print | Product List | Glossary On
Versions: 1 2 3 4 5 6 7 8 9 10 11 12 13 14 15 16 17 18 19 20 21 22 23 24 25 26 27 28 29 30 31 32 33 34 35 36 37 38 39 40 41 42 43 44 45 46 47 48 49 50
148
ASUS44 KMEG 260810
RWRTN
TENNESSEE HOURLY STATE WEATHER ROUNDUP
NATIONAL WEATHER SERVICE MEMPHIS TN
300 AM CDT THU MAY 26 2016

TNZ002-004-019-021-049-052-054-088>092-260900-
WEST TENNESSEE

CITY           SKY/WX    TMP DP  RH WIND       PRES   REMARKS
MEMPHIS INTL   MOCLDY    71  64  78 S8        30.03F
NWS MEMPHIS      N/A     67 N/A N/A MISG        N/A
JACKSON        CLEAR     69  62  78 S10       30.06S
DYERSBURG      PTCLDY    66  61  82 S6        30.04S
UNION CITY     CLEAR     64  64 100 S3        30.03F
PARIS          CLEAR     64  61  88 S8        30.06S
LEXINGTON      CLEAR     63  63 100 CALM      30.08R
$$

TNZ008-025-027-028-033-062-065-066-260900-
NORTH MIDDLE TENNESSEE

CITY           SKY/WX    TMP DP  RH WIND       PRES   REMARKS
NASHVILLE      MOCLDY    67  63  87 CALM      30.11R
CLARKSVILLE    LGT RAIN  63  61  93 SE3       30.07S
SMYRNA         MOCLDY    65  65 100 CALM      30.12R
COOKEVILLE     CLOUDY    64  64 100 S5        30.13F
CROSSVILLE     CLOUDY    68  57  68 W7        30.19R
$$

TNZ061-075-076-078-094-096-097-260900-
SOUTH MIDDLE TENNESSEE

CITY           SKY/WX    TMP DP  RH WIND       PRES   REMARKS
FAYETTEVILLE   MOCLDY    66  61  82 CALM      30.12S
TULLAHOMA      PTCLDY    70  59  68 E5        30.14R
WINCHESTER     PTCLDY    66  61  82 SE5       30.13S
MCMINNVILLE    MOCLDY    66  66 100 NE9       30.15R
COLUMBIA       CLEAR     68  68 100 CALM      30.08S
SHELBYVILLE    PTCLDY    66  63  88 E5        30.12S
$$

TNZ017-018-042-046-047-260900-
NORTHEAST TENNESSEE

CITY           SKY/WX    TMP DP  RH WIND       PRES   REMARKS
TRI CITIES     CLOUDY    65  63  93 CALM      30.17R
$$

TNZ012-013-036-069-073-074-260900-
CENTRAL EAST TENNESSEE

CITY           SKY/WX    TMP DP  RH WIND       PRES   REMARKS
KNOXVILLE      MOCLDY    69  57  65 NW8       30.13R
OAK RIDGE      CLOUDY    65  61  87 CALM      30.14R
GATLINBURG     CLEAR     63  57  82 CALM      30.12S
$$

TNZ083-085-099-260900-
SOUTHEAST TENNESSEE

CITY           SKY/WX    TMP DP  RH WIND       PRES   REMARKS
CHATTANOOGA    MOCLDY    71  58  63 SW3       30.12S
$$

SKY/WX REPORTED AS FAIR MEANS FEW OR NO CLOUDS BELOW
12 THOUSAND FEET.





USA.gov is the U.S. government's official web portal to all federal, state and local government web resources and services.